TimeCST,TemperatureF,Dew PointF,Humidity,Sea Level PressureIn,VisibilityMPH,Wind Direction,Wind SpeedMPH,Gust SpeedMPH,PrecipitationIn,Events,Conditions,WindDirDegrees,DateUTC
12:53 AM,12.0,6.1,77,30.16,10.0,North,10.4,-,N/A,,Overcast,10,2013-02-22 06:53:00
1:53 AM,12.2,6.8,79,30.07,10.0,North,11.5,-,N/A,,Overcast,10,2013-02-22 07:53:00
2:53 AM,12.0,6.1,77,30.13,9.0,North,9.2,-,0.00,,Overcast,10,2013-02-22 08:53:00
3:41 AM,12.2,6.8,79,30.05,2.0,North,9.2,-,0.00,Snow,Light Snow,10,2013-02-22 09:41:00
3:48 AM,12.2,6.8,79,30.04,1.8,North,10.4,-,0.00,Snow,Light Snow,10,2013-02-22 09:48:00
3:53 AM,12.0,7.0,80,30.12,1.8,North,10.4,-,0.01,Snow,Light Snow,10,2013-02-22 09:53:00
4:20 AM,12.2,6.8,79,30.04,2.0,NNE,10.4,-,0.00,Snow,Light Snow,20,2013-02-22 10:20:00
4:29 AM,12.2,6.8,79,30.04,2.0,North,9.2,-,0.00,Snow,Light Snow,10,2013-02-22 10:29:00
4:53 AM,12.0,7.0,80,30.11,2.5,North,9.2,-,0.01,Snow,Light Snow,10,2013-02-22 10:53:00
5:11 AM,12.2,6.8,79,30.03,3.0,North,9.2,-,0.00,Snow,Light Snow,10,2013-02-22 11:11:00
5:53 AM,10.9,6.1,81,30.10,10.0,North,9.2,-,0.00,,Partly Cloudy,360,2013-02-22 11:53:00
6:53 AM,10.9,5.0,77,30.10,10.0,North,9.2,-,N/A,,Partly Cloudy,350,2013-02-22 12:53:00
7:53 AM,9.0,3.0,77,30.10,10.0,North,5.8,-,N/A,,Overcast,10,2013-02-22 13:53:00
8:53 AM,10.9,3.9,73,30.11,10.0,NNW,8.1,-,N/A,,Mostly Cloudy,340,2013-02-22 14:53:00
9:19 AM,10.4,3.2,73,30.04,10.0,NNW,10.4,-,N/A,,Mostly Cloudy,340,2013-02-22 15:19:00
9:53 AM,12.9,5.0,71,30.11,10.0,North,10.4,-,N/A,,Scattered Clouds,350,2013-02-22 15:53:00
10:53 AM,16.0,8.1,71,30.08,10.0,North,5.8,-,N/A,,Clear,350,2013-02-22 16:53:00
11:53 AM,19.0,10.0,68,30.08,10.0,North,5.8,-,N/A,,Partly Cloudy,350,2013-02-22 17:53:00
12:53 PM,21.0,10.0,63,30.07,10.0,NNW,8.1,-,N/A,,Overcast,340,2013-02-22 18:53:00
1:53 PM,21.9,9.0,58,30.04,10.0,North,8.1,-,N/A,,Clear,350,2013-02-22 19:53:00
2:53 PM,21.9,7.0,53,30.02,10.0,North,8.1,-,N/A,,Clear,360,2013-02-22 20:53:00
3:53 PM,21.9,8.1,55,30.03,10.0,North,4.6,-,N/A,,Mostly Cloudy,10,2013-02-22 21:53:00
4:53 PM,23.0,10.0,58,30.01,10.0,North,5.8,-,N/A,,Overcast,350,2013-02-22 22:53:00
5:53 PM,19.9,10.0,65,30.01,10.0,East,5.8,-,N/A,,Overcast,80,2013-02-22 23:53:00
6:53 PM,15.1,8.1,74,30.02,10.0,SE,3.5,-,N/A,,Clear,140,2013-02-23 00:53:00
7:53 PM,12.0,5.0,73,30.02,10.0,SSW,5.8,-,N/A,,Partly Cloudy,200,2013-02-23 01:53:00
8:53 PM,10.0,5.0,80,30.01,10.0,SSE,3.5,-,N/A,,Clear,160,2013-02-23 02:53:00
9:53 PM,8.1,3.9,83,30.01,10.0,SSE,4.6,-,N/A,,Clear,150,2013-02-23 03:53:00
10:53 PM,9.0,3.9,80,30.00,10.0,Calm,Calm,-,N/A,,Mostly Cloudy,0,2013-02-23 04:53:00
11:53 PM,5.0,1.9,87,29.98,10.0,SSW,4.6,-,N/A,,Clear,210,2013-02-23 05:53:00